User: anonymous   Login
Location: Bilsen
(53.7722°N, 9.8765°E)
Time: 06:35:11
(UTC+00:00)
Language:

STARLINK-1153 - Orbit

View from above orbital plane
View from above orbital plane
View from above satellite
View from above satellite

Ground track
Ground track

The orbit data is extracted from the following two-line orbital elements,

1 45080C 20006AN  20153.04232410  .00008308  00000-0  56903-3 0  1539
2 45080  53.0008   8.2080 0001895  94.2810  61.2168 15.05570658    17
Epoch (UTC): 01 June 2020 01:00:56
Eccentricity: 0.0001895
inclination: 53.0008°
perigee height: 548 km
apogee height: 551 km
right ascension of ascending node: 8.2080°
argument of perigee: 94.2810°
revolutions per day: 15.05570658
mean anomaly at epoch: 61.2168°
orbit number at epoch: 1

The dashed part of the orbit path shows where the satellite is in the earth's shadow,  

DLR